Location: Crescent
(42.8242°N, 73.7329°W)
Time: 07:10:52
(UTC+00:00)

Transit 4A - Pass Details

Date: 17 February 2026
Orbit: 864 x 977 km, 66.8° (Epoch: 9 March)

Event Time Altitude Azimuth Distance (km) Brightness Sun altitude
Rises 16:10:28 0° 334° (NNW) 3,594 10.5 33.7°
Reaches altitude 10° 16:13:23 10° 347° (NNW) 2,666 9.9 33.9°
Maximum altitude 16:18:39 28° 44° (NE) 1,726 9.3 34.2°
Drops below altitude 10° 16:23:59 10° 102° (ESE) 2,709 10.7 34.4°
Sets 16:26:58 0° 114° (ESE) 3,661 11.4 34.5°
